When you browse on this site, cookies collect data to enhance your experience and personalize the content and advertising you see.
Visit our Privacy Policy to learn more. By continuing to use the site, you agree to this use of cookies and data.
  • în România
  • Lista ţărilor
  • Pe 7 zile
  • Temperatura apei
  • Hartă satelitară
  • Meteo pe hartă
  • Widget-uri
  • user-avatar
    Intrare

    Meteo pe oră la Makowice

    Astăzi, 22 Februarie, Vineri

    Timp Temperatura Precipitaţii Vânt Presiune Umiditate
    00:00 +5°C° 0.9 mm 4 m/s 746 mmHg 92%
    01:00 +4°C° 0 mm 3 m/s 746 mmHg 92%
    02:00 +5°C° 0.8 mm 3 m/s 746 mmHg 93%
    03:00 +5°C° 0.8 mm 4 m/s 746 mmHg 94%
    04:00 +5°C° 0.8 mm 4 m/s 746 mmHg 95%
    05:00 +3°C° 0.3 mm 5 m/s 747 mmHg 93%
    06:00 +2°C° 0.3 mm 6 m/s 748 mmHg 92%
    07:00 +1°C° 0 mm 5 m/s 749 mmHg 88%
    08:00 0°C° 0.1 mm 5 m/s 750 mmHg 85%
    09:00 -2°C° 0.1 mm 6 m/s 752 mmHg 82%
    10:00 -3°C° 0.1 mm 6 m/s 753 mmHg 79%
    11:00 -3°C° 0 mm 6 m/s 754 mmHg 71%
    12:00 -2°C° 0 mm 6 m/s 754 mmHg 63%
    13:00 -2°C° 0 mm 6 m/s 755 mmHg 56%
    14:00 -2°C° 0 mm 6 m/s 756 mmHg 54%
    15:00 -1°C° 0 mm 5 m/s 756 mmHg 52%
    16:00 -2°C° 0 mm 5 m/s 757 mmHg 50%
    17:00 -4°C° 0 mm 5 m/s 758 mmHg 53%
    18:00 -4°C° 0 mm 4 m/s 758 mmHg 56%
    19:00 -4°C° 0 mm 3 m/s 759 mmHg 59%
    20:00 -5°C° 0 mm 3 m/s 760 mmHg 59%
    21:00 -5°C° 0 mm 3 m/s 760 mmHg 58%
    22:00 -5°C° 0 mm 3 m/s 761 mmHg 58%
    23:00 -4°C° 0 mm 2 m/s 761 mmHg 56%

    Mâine, 23 Februarie, Sâmbătă

    Timp Temperatura Precipitaţii Vânt Presiune Umiditate
    00:00 -4°C° 0 mm 2 m/s 761 mmHg 54%
    01:00 -4°C° 0 mm 2 m/s 762 mmHg 52%
    02:00 -4°C° 0 mm 2 m/s 762 mmHg 51%
    03:00 -2°C° 0 mm 1 m/s 762 mmHg 50%
    04:00 -3°C° 0 mm 1 m/s 762 mmHg 49%
    05:00 -3°C° 0 mm 1 m/s 762 mmHg 48%
    06:00 -3°C° 0 mm 1 m/s 762 mmHg 48%
    07:00 -3°C° 0 mm 1 m/s 762 mmHg 47%
    08:00 -2°C° 0 mm 1 m/s 762 mmHg 42%
    09:00 -1°C° 0 mm 1 m/s 762 mmHg 37%
    10:00 -2°C° 0 mm 2 m/s 763 mmHg 31%
    11:00 -2°C° 0 mm 2 m/s 762 mmHg 29%
    12:00 -1°C° 0 mm 2 m/s 762 mmHg 27%
    13:00 +1°C° 0 mm 2 m/s 762 mmHg 24%
    14:00 +1°C° 0 mm 2 m/s 761 mmHg 26%
    15:00 +1°C° 0 mm 2 m/s 761 mmHg 27%
    16:00 +1°C° 0 mm 2 m/s 761 mmHg 29%
    17:00 -1°C° 0 mm 2 m/s 761 mmHg 32%
    18:00 0°C° 0 mm 1 m/s 760 mmHg 36%
    19:00 -1°C° 0 mm 1 m/s 760 mmHg 40%
    20:00 -1°C° 0 mm 1 m/s 760 mmHg 40%
    21:00 -1°C° 0 mm 1 m/s 760 mmHg 39%
    22:00 -1°C° 0 mm 1 m/s 760 mmHg 39%
    23:00 -1°C° 0 mm 1 m/s 760 mmHg 38%

    Poimâine, 24 Februarie, Duminică

    Timp Temperatura Precipitaţii Vânt Presiune Umiditate
    00:00 0°C° 0 mm 1 m/s 760 mmHg 36%
    01:00 0°C° 0 mm 1 m/s 760 mmHg 35%
    02:00 0°C° 0 mm 1 m/s 760 mmHg 34%
    03:00 +1°C° 0 mm 1 m/s 759 mmHg 33%
    04:00 +1°C° 0 mm 1 m/s 759 mmHg 32%
    05:00 +1°C° 0 mm 1 m/s 759 mmHg 32%
    06:00 +1°C° 0 mm 1 m/s 759 mmHg 31%
    07:00 +1°C° 0 mm 1 m/s 759 mmHg 31%
    08:00 +3°C° 0 mm 1 m/s 759 mmHg 29%
    09:00 +4°C° 0 mm 1 m/s 759 mmHg 27%
    10:00 +5°C° 0 mm 1 m/s 759 mmHg 24%
    11:00 +6°C° 0 mm 1 m/s 759 mmHg 25%
    12:00 +7°C° 0 mm 1 m/s 759 mmHg 26%
    13:00 +8°C° 0 mm 2 m/s 759 mmHg 27%
    14:00 +7°C° 0 mm 2 m/s 759 mmHg 34%
    15:00 +7°C° 0 mm 2 m/s 759 mmHg 40%
    16:00 +6°C° 0 mm 2 m/s 758 mmHg 47%
    17:00 +6°C° 0 mm 1 m/s 758 mmHg 49%
    18:00 +5°C° 0 mm 1 m/s 759 mmHg 52%
    19:00 +3°C° 0 mm 1 m/s 759 mmHg 54%
    20:00 +3°C° 0 mm 1 m/s 759 mmHg 54%
    21:00 +2°C° 0 mm 2 m/s 759 mmHg 55%
    22:00 +2°C° 0 mm 2 m/s 759 mmHg 55%
    23:00 +2°C° 0 mm 2 m/s 759 mmHg 55%

    25 Februarie, Luni

    Timp Temperatura Precipitaţii Vânt Presiune Umiditate
    00:00 +2°C° 0 mm 2 m/s 759 mmHg 56%
    01:00 +2°C° 0 mm 2 m/s 759 mmHg 56%
    02:00 +2°C° 0 mm 2 m/s 759 mmHg 57%
    03:00 +2°C° 0 mm 2 m/s 759 mmHg 57%
    04:00 +2°C° 0 mm 2 m/s 759 mmHg 58%
    05:00 +2°C° 0 mm 2 m/s 759 mmHg 59%
    06:00 +2°C° 0 mm 2 m/s 759 mmHg 60%
    07:00 +2°C° 0 mm 2 m/s 759 mmHg 60%
    08:00 +3°C° 0 mm 2 m/s 759 mmHg 57%
    09:00 +4°C° 0 mm 3 m/s 759 mmHg 54%
    10:00 +5°C° 0 mm 3 m/s 760 mmHg 51%
    11:00 +7°C° 0 mm 3 m/s 759 mmHg 51%
    12:00 +8°C° 0 mm 3 m/s 759 mmHg 51%
    13:00 +9°C° 0 mm 3 m/s 759 mmHg 51%
    14:00 +9°C° 0 mm 2 m/s 759 mmHg 55%
    15:00 +9°C° 0 mm 2 m/s 758 mmHg 58%
    16:00 +9°C° 0 mm 2 m/s 758 mmHg 62%
    17:00 +7°C° 0 mm 2 m/s 758 mmHg 65%
    18:00 +7°C° 0 mm 1 m/s 758 mmHg 69%
    19:00 +5°C° 0 mm 1 m/s 758 mmHg 73%
    20:00 +5°C° 0 mm 1 m/s 758 mmHg 72%
    21:00 +4°C° 0 mm 2 m/s 758 mmHg 71%
    22:00 +4°C° 0 mm 2 m/s 757 mmHg 71%
    23:00 +4°C° 0 mm 2 m/s 757 mmHg 68%

    26 Februarie, Marţi

    Timp Temperatura Precipitaţii Vânt Presiune Umiditate
    00:00 +4°C° 0 mm 2 m/s 757 mmHg 66%
    01:00 +4°C° 0 mm 2 m/s 757 mmHg 63%
    02:00 +4°C° 0 mm 2 m/s 756 mmHg 63%
    03:00 +4°C° 0 mm 2 m/s 756 mmHg 64%
    04:00 +4°C° 0 mm 2 m/s 755 mmHg 64%
    05:00 +3°C° 0 mm 3 m/s 755 mmHg 66%
    06:00 +3°C° 0 mm 3 m/s 755 mmHg 69%
    07:00 +3°C° 0 mm 3 m/s 755 mmHg 71%
    08:00 +5°C° 0 mm 4 m/s 754 mmHg 66%
    09:00 +6°C° 0 mm 5 m/s 754 mmHg 62%
    10:00 +8°C° 0 mm 5 m/s 754 mmHg 57%
    11:00 +9°C° 0 mm 6 m/s 754 mmHg 52%
    12:00 +10°C° 0 mm 6 m/s 753 mmHg 46%
    13:00 +11°C° 0 mm 6 m/s 753 mmHg 41%
    14:00 +10°C° 0 mm 6 m/s 753 mmHg 46%
    15:00 +10°C° 0 mm 5 m/s 752 mmHg 52%
    16:00 +9°C° 0 mm 5 m/s 752 mmHg 58%
    17:00 +8°C° 0 mm 4 m/s 752 mmHg 62%
    18:00 +8°C° 0 mm 4 m/s 753 mmHg 66%
    19:00 +8°C° 0 mm 3 m/s 753 mmHg 70%
    20:00 +7°C° 0 mm 3 m/s 753 mmHg 75%
    21:00 +5°C° 0 mm 3 m/s 753 mmHg 80%
    22:00 +5°C° 0 mm 2 m/s 753 mmHg 85%
    23:00 +5°C° 0 mm 2 m/s 753 mmHg 87%

    27 Februarie, Miercuri

    Timp Temperatura Precipitaţii Vânt Presiune Umiditate
    00:00 +4°C° 0 mm 2 m/s 753 mmHg 89%
    01:00 +4°C° 0 mm 2 m/s 753 mmHg 92%
    02:00 +3°C° 0 mm 2 m/s 753 mmHg 92%
    03:00 +3°C° 0 mm 2 m/s 753 mmHg 93%
    04:00 +3°C° 0 mm 2 m/s 752 mmHg 93%
    05:00 +4°C° 0 mm 1 m/s 752 mmHg 93%
    06:00 +3°C° 0 mm 1 m/s 752 mmHg 92%
    07:00 +3°C° 0 mm 1 m/s 752 mmHg 92%
    08:00 +5°C° 0 mm 1 m/s 752 mmHg 84%
    09:00 +7°C° 0 mm 1 m/s 752 mmHg 77%
    10:00 +8°C° 0 mm 1 m/s 752 mmHg 70%
    11:00 +10°C° 0 mm 1 m/s 752 mmHg 62%
    12:00 +11°C° 0 mm 1 m/s 751 mmHg 53%
    13:00 +12°C° 0 mm 1 m/s 751 mmHg 45%
    14:00 +12°C° 0 mm 1 m/s 750 mmHg 48%
    15:00 +13°C° 0 mm 1 m/s 750 mmHg 50%
    16:00 +13°C° 0 mm 1 m/s 749 mmHg 52%
    17:00 +11°C° 0 mm 1 m/s 749 mmHg 59%
    18:00 +10°C° 0 mm 1 m/s 748 mmHg 67%
    19:00 +9°C° 0 mm 1 m/s 748 mmHg 74%
    20:00 +7°C° 0 mm 2 m/s 747 mmHg 78%
    21:00 +7°C° 0 mm 2 m/s 747 mmHg 81%
    22:00 +7°C° 0 mm 2 m/s 747 mmHg 85%
    23:00 +6°C° 0 mm 2 m/s 746 mmHg 84%
    Arată mai mult